| time (UTC) | temp F | wind direction | speed MPH | gust MPH | rain 1hr in | rain 24hr in | rain mn in | humidity % | barometer mb |
| 20260504015504 | 59 | 103 | 0.0 | 0.0 | 0.00 | 0.02 | 0.01 | 80 | 1019.7 |
| 20260504015004 | 59 | 102 | 0.0 | 0.0 | 0.00 | 0.02 | 0.01 | 80 | 1019.6 |
| 20260504014519 | 59 | 102 | 0.0 | 1.0 | 0.00 | 0.02 | 0.01 | 79 | 1019.5 |
| 20260504014009 | 59 | 102 | 0.0 | 2.0 | 0.00 | 0.02 | 0.01 | 78 | 1019.5 |
| 20260504013506 | 59 | 102 | 0.0 | 2.0 | 0.00 | 0.02 | 0.01 | 77 | 1019.4 |
| 20260504013026 | 60 | 108 | 0.0 | 2.0 | 0.00 | 0.02 | 0.01 | 76 | 1019.3 |
| 20260504012507 | 60 | 98 | 0.0 | 2.0 | 0.00 | 0.02 | 0.01 | 77 | 1019.3 |
| 20260504012008 | 60 | 98 | 0.0 | 2.0 | 0.00 | 0.02 | 0.01 | 76 | 1019.3 |
| 20260504011523 | 60 | 103 | 0.0 | 2.0 | 0.00 | 0.02 | 0.01 | 74 | 1019.3 |
| 20260504011007 | 61 | 109 | 0.0 | 2.0 | 0.00 | 0.02 | 0.01 | 73 | 1019.2 |
| 20260504010504 | 61 | 109 | 0.0 | 2.0 | 0.00 | 0.02 | 0.01 | 73 | 1019.1 |
| 20260504010010 | 62 | 109 | 0.0 | 2.0 | 0.00 | 0.02 | 0.01 | 73 | 1018.9 |
| 20260504005504 | 62 | 111 | 0.0 | 2.0 | 0.00 | 0.02 | 0.01 | 71 | 1018.8 |
| 20260504005007 | 63 | 109 | 0.0 | 2.0 | 0.00 | 0.02 | 0.01 | 71 | 1018.8 |
| 20260504004514 | 63 | 109 | 0.0 | 2.0 | 0.00 | 0.02 | 0.01 | 70 | 1018.7 |
| 20260504004004 | 64 | 109 | 0.0 | 2.0 | 0.00 | 0.02 | 0.01 | 70 | 1018.6 |
| 20260504003509 | 64 | 109 | 0.0 | 2.0 | 0.00 | 0.02 | 0.01 | 69 | 1018.7 |
| 20260504003021 | 65 | 109 | 0.0 | 2.0 | 0.00 | 0.02 | 0.01 | 67 | 1018.7 |
| 20260504002508 | 65 | 157 | 0.0 | 2.0 | 0.00 | 0.02 | 0.01 | 67 | 1018.8 |
| 20260504002009 | 65 | 157 | 0.0 | 2.0 | 0.00 | 0.02 | 0.01 | 65 | 1018.8 |
| 20260504001525 | 66 | 167 | 0.0 | 2.0 | 0.00 | 0.02 | 0.01 | 64 | 1018.7 |
| 20260504001010 | 67 | 168 | 0.0 | 2.0 | 0.00 | 0.02 | 0.01 | 61 | 1018.8 |
| 20260504000510 | 67 | 133 | 0.0 | 4.0 | 0.00 | 0.02 | 0.01 | 59 | 1018.8 |
| 20260504000006 | 68 | 186 | 1.0 | 4.0 | 0.00 | 0.02 | 0.01 | 58 | 1018.7 |
| 20260503235506 | 68 | 73 | 2.0 | 4.0 | 0.00 | 0.02 | 0.01 | 57 | 1018.7 |
| 20260503235005 | 69 | 187 | 1.0 | 5.0 | 0.00 | 0.02 | 0.01 | 57 | 1018.7 |
| 20260503234514 | 69 | 123 | 2.0 | 5.0 | 0.00 | 0.02 | 0.01 | 57 | 1018.6 |
| 20260503234006 | 69 | 101 | 2.0 | 9.0 | 0.00 | 0.02 | 0.01 | 56 | 1018.4 |
| 20260503233503 | 69 | 93 | 1.0 | 9.0 | 0.00 | 0.02 | 0.01 | 56 | 1018.5 |
| 20260503233002 | 70 | 131 | 2.0 | 7.0 | 0.00 | 0.02 | 0.01 | 56 | 1018.5 |
| 20260503232502 | 70 | 159 | 1.0 | 6.0 | 0.00 | 0.02 | 0.01 | 57 | 1018.5 |
| 20260503232004 | 70 | 91 | 2.0 | 4.0 | 0.00 | 0.02 | 0.01 | 56 | 1018.4 |
| 20260503231503 | 70 | 124 | 2.0 | 4.0 | 0.00 | 0.02 | 0.01 | 56 | 1018.6 |
| 20260503231004 | 70 | 356 | 1.0 | 6.0 | 0.00 | 0.02 | 0.01 | 58 | 1018.6 |
| 20260503230503 | 70 | 124 | 1.0 | 6.0 | 0.00 | 0.02 | 0.01 | 58 | 1018.4 |
| 20260503230008 | 70 | 112 | 4.0 | 9.0 | 0.00 | 0.02 | 0.01 | 56 | 1018.5 |
| 20260503225506 | 70 | 175 | 1.0 | 9.0 | 0.00 | 0.02 | 0.01 | 56 | 1018.5 |
| 20260503225007 | 71 | 64 | 5.0 | 9.0 | 0.00 | 0.02 | 0.01 | 56 | 1018.5 |
| 20260503224529 | 71 | 83 | 2.0 | 8.0 | 0.00 | 0.02 | 0.01 | 56 | 1018.5 |
| 20260503224004 | 71 | 82 | 4.0 | 7.0 | 0.00 | 0.02 | 0.01 | 56 | 1018.6 |
| 20260503223506 | 70 | 121 | 2.0 | 9.0 | 0.00 | 0.02 | 0.01 | 57 | 1018.6 |
| 20260503223022 | 70 | 94 | 4.0 | 11.0 | 0.00 | 0.02 | 0.01 | 56 | 1018.4 |
| 20260503222503 | 71 | 93 | 5.0 | 11.0 | 0.00 | 0.02 | 0.01 | 57 | 1018.5 |
| 20260503222004 | 71 | 71 | 5.0 | 9.0 | 0.00 | 0.03 | 0.01 | 56 | 1018.5 |
| 20260503221521 | 71 | 115 | 6.0 | 9.0 | 0.00 | 0.03 | 0.01 | 56 | 1018.5 |
| 20260503221003 | 71 | 76 | 6.0 | 10.0 | 0.00 | 0.03 | 0.01 | 56 | 1018.4 |
| 20260503220503 | 71 | 86 | 4.0 | 10.0 | 0.00 | 0.03 | 0.01 | 55 | 1018.4 |
| 20260503220004 | 71 | 79 | 1.0 | 7.0 | 0.00 | 0.03 | 0.01 | 56 | 1018.5 |
| 20260503215504 | 71 | 54 | 3.0 | 7.0 | 0.00 | 0.03 | 0.01 | 56 | 1018.4 |
| 20260503215006 | 71 | 90 | 1.0 | 7.0 | 0.00 | 0.03 | 0.01 | 56 | 1018.5 |
| 20260503214508 | 71 | 115 | 3.0 | 7.0 | 0.00 | 0.03 | 0.01 | 55 | 1018.4 |
| 20260503214010 | 71 | 184 | 3.0 | 6.0 | 0.00 | 0.03 | 0.01 | 56 | 1018.5 |
| 20260503213506 | 71 | 163 | 2.0 | 7.0 | 0.00 | 0.03 | 0.01 | 56 | 1018.5 |
| 20260503213014 | 71 | 142 | 2.0 | 7.0 | 0.00 | 0.03 | 0.01 | 55 | 1018.4 |
| 20260503212506 | 72 | 134 | 4.0 | 8.0 | 0.00 | 0.03 | 0.01 | 54 | 1018.3 |
| 20260503212007 | 72 | 172 | 5.0 | 11.0 | 0.00 | 0.03 | 0.01 | 53 | 1018.3 |
| 20260503211523 | 73 | 132 | 5.0 | 9.0 | 0.00 | 0.03 | 0.01 | 53 | 1018.3 |
| 20260503211004 | 73 | 93 | 3.0 | 8.0 | 0.00 | 0.03 | 0.01 | 54 | 1018.4 |
| 20260503210505 | 73 | 146 | 3.0 | 8.0 | 0.00 | 0.03 | 0.01 | 52 | 1018.4 |
| 20260503210007 | 73 | 98 | 2.0 | 6.0 | 0.00 | 0.03 | 0.01 | 51 | 1018.4 |
| 20260503205504 | 73 | 208 | 2.0 | 6.0 | 0.00 | 0.03 | 0.01 | 50 | 1018.3 |
| 20260503205012 | 73 | 117 | 3.0 | 6.0 | 0.00 | 0.03 | 0.01 | 50 | 1018.4 |
| 20260503204507 | 73 | 113 | 2.0 | 5.0 | 0.00 | 0.03 | 0.01 | 51 | 1018.3 |
| 20260503204011 | 72 | 103 | 1.0 | 4.0 | 0.00 | 0.03 | 0.01 | 52 | 1018.6 |
| 20260503203505 | 72 | 153 | 1.0 | 6.0 | 0.00 | 0.04 | 0.01 | 51 | 1018.5 |
| 20260503203016 | 72 | 50 | 3.0 | 6.0 | 0.00 | 0.04 | 0.01 | 50 | 1018.6 |
| 20260503202509 | 72 | 106 | 3.0 | 8.0 | 0.00 | 0.04 | 0.01 | 50 | 1018.5 |
| 20260503202008 | 73 | 75 | 4.0 | 11.0 | 0.00 | 0.04 | 0.01 | 49 | 1018.6 |
| 20260503201524 | 74 | 176 | 5.0 | 11.0 | 0.00 | 0.04 | 0.01 | 49 | 1018.7 |
| 20260503201007 | 75 | 131 | 4.0 | 10.0 | 0.00 | 0.04 | 0.01 | 47 | 1018.6 |
| 20260503200510 | 74 | 33 | 5.0 | 9.0 | 0.00 | 0.04 | 0.01 | 46 | 1018.5 |
| 20260503200022 | 74 | 70 | 5.0 | 7.0 | 0.00 | 0.04 | 0.01 | 45 | 1018.6 |
| 20260503195504 | 74 | 5 | 3.0 | 8.0 | 0.00 | 0.04 | 0.01 | 48 | 1018.7 |
| 20260503195003 | 73 | 151 | 4.0 | 8.0 | 0.00 | 0.04 | 0.01 | 46 | 1018.7 |
| 20260503194509 | 73 | 200 | 4.0 | 9.0 | 0.00 | 0.04 | 0.01 | 48 | 1018.8 |
| 20260503194004 | 73 | 156 | 6.0 | 9.0 | 0.00 | 0.04 | 0.01 | 46 | 1018.9 |
| 20260503193508 | 72 | 179 | 4.0 | 9.0 | 0.00 | 0.05 | 0.01 | 48 | 1018.9 |
| 20260503193014 | 73 | 176 | 4.0 | 11.0 | 0.00 | 0.05 | 0.01 | 48 | 1019.0 |
| 20260503192512 | 73 | 114 | 7.0 | 12.0 | 0.00 | 0.05 | 0.01 | 46 | 1019.2 |
| 20260503192008 | 73 | 71 | 6.0 | 12.0 | 0.00 | 0.05 | 0.01 | 47 | 1019.2 |
| 20260503191528 | 73 | 261 | 3.0 | 6.0 | 0.00 | 0.05 | 0.01 | 46 | 1019.2 |
| 20260503191011 | 73 | 280 | 1.0 | 5.0 | 0.00 | 0.05 | 0.01 | 46 | 1019.4 |
| 20260503190509 | 73 | 252 | 3.0 | 5.0 | 0.00 | 0.05 | 0.01 | 45 | 1019.5 |
| 20260503190030 | 73 | 261 | 3.0 | 8.0 | 0.00 | 0.06 | 0.01 | 45 | 1019.6 |
| 20260503185511 | 73 | 262 | 4.0 | 9.0 | 0.00 | 0.06 | 0.01 | 47 | 1019.7 |
| 20260503185010 | 73 | 332 | 2.0 | 9.0 | 0.00 | 0.06 | 0.01 | 45 | 1019.8 |
| 20260503184505 | 73 | 22 | 4.0 | 5.0 | 0.00 | 0.06 | 0.01 | 47 | 1019.9 |
| 20260503184005 | 73 | 293 | 2.0 | 9.0 | 0.00 | 0.06 | 0.01 | 45 | 1019.9 |
| 20260503183509 | 73 | 53 | 7.0 | 9.0 | 0.00 | 0.07 | 0.01 | 45 | 1020.0 |
| 20260503183011 | 72 | 354 | 2.0 | 6.0 | 0.00 | 0.07 | 0.01 | 47 | 1020.2 |
| 20260503182507 | 72 | 91 | 2.0 | 6.0 | 0.00 | 0.07 | 0.01 | 47 | 1020.2 |
| 20260503182006 | 72 | 39 | 4.0 | 7.0 | 0.00 | 0.08 | 0.01 | 46 | 1020.3 |
| 20260503181515 | 72 | 25 | 3.0 | 7.0 | 0.00 | 0.08 | 0.01 | 46 | 1020.2 |
| 20260503181008 | 72 | 285 | 3.0 | 6.0 | 0.00 | 0.08 | 0.01 | 46 | 1020.3 |
| 20260503180505 | 71 | 141 | 2.0 | 7.0 | 0.00 | 0.08 | 0.01 | 45 | 1020.3 |
| 20260503180029 | 71 | 276 | 5.0 | 8.0 | 0.00 | 0.09 | 0.01 | 44 | 1020.3 |
| 20260503175505 | 71 | 262 | 5.0 | 10.0 | 0.00 | 0.09 | 0.01 | 44 | 1020.4 |
| 20260503175008 | 71 | 342 | 7.0 | 10.0 | 0.00 | 0.09 | 0.01 | 46 | 1020.4 |
| 20260503174510 | 71 | 353 | 6.0 | 8.0 | 0.00 | 0.10 | 0.01 | 47 | 1020.5 |
| 20260503174004 | 71 | 26 | 4.0 | 6.0 | 0.00 | 0.10 | 0.01 | 48 | 1020.5 |
| 20260503173503 | 72 | 158 | 2.0 | 7.0 | 0.00 | 0.11 | 0.01 | 45 | 1020.5 |
| 20260503173002 | 72 | 157 | 2.0 | 7.0 | 0.00 | 0.11 | 0.01 | 46 | 1020.5 |
| 20260503172502 | 72 | 186 | 3.0 | 12.0 | 0.00 | 0.11 | 0.01 | 45 | 1020.6 |
| 20260503172003 | 71 | 86 | 5.0 | 11.0 | 0.00 | 0.12 | 0.01 | 45 | 1020.7 |
| 20260503171506 | 71 | 113 | 4.0 | 7.0 | 0.00 | 0.12 | 0.01 | 46 | 1020.7 |
| 20260503171002 | 71 | 21 | 2.0 | 9.0 | 0.00 | 0.12 | 0.01 | 48 | 1020.8 |
| 20260503170505 | 71 | 356 | 2.0 | 9.0 | 0.01 | 0.13 | 0.01 | 51 | 1020.8 |
| 20260503151002 | 63 | 32 | 6.0 | 9.0 | 0.00 | 0.27 | 0.00 | 77 | 1021.6 |
| 20260503150506 | 62 | 25 | 5.0 | 9.0 | 0.00 | 0.28 | 0.00 | 77 | 1021.6 |
| 20260503131005 | 55 | 1 | 4.0 | 9.0 | 0.00 | 0.70 | 0.00 | 94 | 1020.9 |
| 20260503110511 | 52 | 359 | 3.0 | 4.0 | 0.00 | 0.71 | 0.00 | 94 | 1019.4 |
| 20260503090503 | 53 | 335 | 2.0 | 3.0 | 0.00 | 0.71 | 0.00 | 94 | 1018.1 |
| 20260503081502 | 54 | 360 | 2.0 | 3.0 | 0.00 | 0.71 | 0.00 | 94 | 1018.0 |
| 20260503081002 | 54 | 352 | 2.0 | 2.0 | 0.00 | 0.71 | 0.00 | 94 | 1018.1 |
| 20260503080501 | 54 | 321 | 1.0 | 2.0 | 0.00 | 0.71 | 0.00 | 94 | 1018.0 |
| 20260503072502 | 54 | 357 | 2.0 | 4.0 | 0.00 | 0.71 | 0.00 | 94 | 1018.0 |
| 20260503072002 | 54 | 353 | 2.0 | 4.0 | 0.00 | 0.71 | 0.00 | 94 | 1018.0 |
| 20260503071505 | 54 | 359 | 3.0 | 4.0 | 0.00 | 0.71 | 0.00 | 94 | 1018.1 |
| 20260503071002 | 54 | 359 | 2.0 | 4.0 | 0.00 | 0.71 | 0.00 | 94 | 1018.0 |
| 20260503070502 | 54 | 335 | 1.0 | 4.0 | 0.00 | 0.71 | 0.00 | 94 | 1018.0 |
| 20260503055003 | 55 | 1 | 3.0 | 4.0 | 0.00 | 0.71 | 0.00 | 94 | 1017.4 |
| 20260503054503 | 55 | 356 | 3.0 | 4.0 | 0.00 | 0.71 | 0.00 | 94 | 1017.4 |
| 20260503054002 | 55 | 356 | 2.0 | 3.0 | 0.00 | 0.71 | 0.00 | 94 | 1017.4 |
| 20260503053502 | 55 | 360 | 2.0 | 3.0 | 0.00 | 0.71 | 0.00 | 94 | 1017.4 |
| 20260503053003 | 55 | 357 | 2.0 | 3.0 | 0.00 | 0.71 | 0.00 | 94 | 1017.5 |
| 20260503052502 | 55 | 354 | 1.0 | 2.0 | 0.00 | 0.71 | 0.00 | 94 | 1017.5 |
| 20260503052002 | 55 | 354 | 0.0 | 2.0 | 0.00 | 0.71 | 0.00 | 94 | 1017.5 |
| 20260503051502 | 55 | 354 | 0.0 | 2.0 | 0.00 | 0.71 | 0.00 | 94 | 1017.4 |
| 20260503051002 | 55 | 354 | 0.0 | 2.0 | 0.00 | 0.71 | 0.00 | 94 | 1017.4 |
| 20260503050503 | 56 | 354 | 0.0 | 2.0 | 0.00 | 0.71 | 0.00 | 94 | 1017.3 |
| 20260503050004 | 56 | 354 | 0.0 | 1.0 | 0.00 | 0.71 | 0.00 | 94 | 1017.3 |
| 20260503045504 | 56 | 354 | 0.0 | 1.0 | 0.00 | 0.71 | 0.00 | 94 | 1017.2 |
| 20260503045004 | 56 | 354 | 0.0 | 1.0 | 0.00 | 0.71 | 0.00 | 94 | 1017.1 |
| 20260503044501 | 56 | 354 | 1.0 | 2.0 | 0.00 | 0.71 | 0.00 | 94 | 1017.0 |
| 20260503044003 | 56 | 354 | 1.0 | 2.0 | 0.00 | 0.71 | 0.00 | 94 | 1017.0 |
| 20260503043505 | 56 | 349 | 1.0 | 2.0 | 0.00 | 0.71 | 0.00 | 94 | 1017.0 |
| 20260503043003 | 56 | 335 | 1.0 | 1.0 | 0.00 | 0.71 | 0.00 | 93 | 1017.0 |
| 20260503042504 | 56 | 359 | 1.0 | 1.0 | 0.00 | 0.71 | 0.00 | 93 | 1016.9 |
| 20260503042004 | 56 | 322 | 0.0 | 2.0 | 0.00 | 0.71 | 0.00 | 94 | 1016.7 |
| 20260503041503 | 56 | 322 | 0.0 | 2.0 | 0.00 | 0.71 | 0.00 | 94 | 1016.6 |
| 20260503041003 | 56 | 322 | 0.0 | 2.0 | 0.00 | 0.71 | 0.00 | 94 | 1016.5 |
| 20260503040502 | 56 | 322 | 1.0 | 2.0 | 0.01 | 0.71 | 0.00 | 94 | 1016.5 |
| 20260503040005 | 56 | 354 | 0.0 | 2.0 | 0.01 | 0.71 | 0.00 | 93 | 1016.5 |
| 20260503035503 | 56 | 354 | 0.0 | 2.0 | 0.01 | 0.71 | 0.71 | 93 | 1016.4 |
| 20260503035003 | 56 | 354 | 1.0 | 1.0 | 0.01 | 0.71 | 0.71 | 93 | 1016.4 |
| 20260503034502 | 56 | 354 | 1.0 | 1.0 | 0.01 | 0.71 | 0.71 | 93 | 1016.3 |
| 20260503034002 | 56 | 340 | 1.0 | 2.0 | 0.01 | 0.71 | 0.71 | 93 | 1016.4 |
| 20260503033503 | 56 | 345 | 1.0 | 2.0 | 0.01 | 0.71 | 0.71 | 93 | 1016.3 |
| 20260503033002 | 57 | 341 | 1.0 | 2.0 | 0.01 | 0.71 | 0.71 | 93 | 1016.4 |
| 20260503032503 | 57 | 341 | 0.0 | 2.0 | 0.01 | 0.71 | 0.71 | 93 | 1016.4 |
| 20260503032003 | 57 | 341 | 1.0 | 1.0 | 0.01 | 0.71 | 0.71 | 93 | 1016.4 |
| 20260503031503 | 57 | 288 | 1.0 | 1.0 | 0.01 | 0.71 | 0.71 | 93 | 1016.4 |
| 20260503031004 | 57 | 157 | 0.0 | 2.0 | 0.01 | 0.71 | 0.71 | 93 | 1016.3 |
| 20260503030504 | 57 | 157 | 0.0 | 2.0 | 0.00 | 0.70 | 0.70 | 93 | 1016.2 |
| 20260503030006 | 58 | 157 | 0.0 | 2.0 | 0.00 | 0.70 | 0.70 | 93 | 1016.2 |
| 20260503025504 | 58 | 157 | 1.0 | 2.0 | 0.00 | 0.70 | 0.70 | 93 | 1016.1 |
| 20260503025003 | 58 | 69 | 0.0 | 2.0 | 0.00 | 0.70 | 0.70 | 93 | 1016.2 |
| 20260503024503 | 58 | 1 | 0.0 | 2.0 | 0.00 | 0.70 | 0.70 | 93 | 1016.2 |
| 20260503024003 | 58 | 1 | 0.0 | 2.0 | 0.00 | 0.70 | 0.70 | 93 | 1016.1 |
| 20260503023502 | 58 | 1 | 0.0 | 0.0 | 0.00 | 0.70 | 0.70 | 93 | 1016.1 |
| 20260503023004 | 58 | 1 | 0.0 | 0.0 | 0.00 | 0.70 | 0.70 | 93 | 1016.1 |
| 20260503022503 | 58 | 1 | 0.0 | 0.0 | 0.00 | 0.70 | 0.70 | 93 | 1016.1 |
| 20260503022003 | 58 | 1 | 0.0 | 0.0 | 0.00 | 0.70 | 0.70 | 93 | 1016.0 |